KD8BMB Weather Reports


time (UTC)temp
F
wind
direction
speed
knots
gust
knots
rain 1hr
in
rain 24hr
in
rain mn
in
humidity
%
barometer
mb
20260902004354 82 267 0.9 0.9 0.00 0.00 0.00 87 1013.0
20260902003849 82 294 0.0 0.0 0.00 0.00 0.00 87 1012.9
20260902003344 82 270 0.9 1.7 0.00 0.00 0.00 87 1012.4
20260902002840 83 275 0.0 0.0 0.00 0.00 0.00 87 1012.7
20260902002339 83 277 0.0 0.0 0.00 0.00 0.00 86 1012.5
20260902001834 83 278 0.9 1.7 0.00 0.00 0.00 86 1012.6
20260902001329 83 296 1.7 1.7 0.00 0.00 0.00 85 1012.3
20260902000824 84 241 1.7 2.6 0.00 0.00 0.00 85 1012.7
20260902000322 84 251 0.9 2.6 0.00 0.00 0.00 84 1012.7
20260901235814 84 270 1.7 1.7 0.00 0.00 0.00 83 1012.7
20260901235308 85 281 0.0 0.9 0.00 0.00 0.00 83 1012.6
20260901234808 85 259 0.0 0.0 0.00 0.00 0.00 82 1012.7
20260901234303 85 272 1.7 2.6 0.00 0.00 0.00 81 1012.6
20260901233758 86 309 0.0 0.9 0.00 0.00 0.00 81 1012.9
20260901233253 86 279 1.7 2.6 0.00 0.00 0.00 80 1012.6
20260901232749 86 241 1.7 1.7 0.00 0.00 0.00 80 1012.9
20260901232244 86 259 0.9 1.7 0.00 0.00 0.00 79 1012.6
20260901231740 86 227 1.7 2.6 0.00 0.00 0.00 78 1012.6
20260901231236 86 269 0.9 0.9 0.00 0.00 0.00 78 1012.9
20260901230731 87 221 2.6 2.6 0.00 0.00 0.00 76 1013.1
20260901230225 87 66 0.9 2.6 0.00 0.00 0.00 76 1012.9
20260901225721 88 297 6.1 7.8 0.00 0.00 0.00 74 1012.9
20260901225215 88 305 1.7 1.7 0.00 0.00 0.00 74 1013.0
20260901224711 88 226 2.6 4.3 0.00 0.00 0.00 74 1012.9
20260901224207 89 230 2.6 4.3 0.00 0.00 0.00 73 1012.9
20260901223703 89 283 0.9 1.7 0.00 0.00 0.00 74 1012.6
20260901223158 89 285 2.6 2.6 0.00 0.00 0.00 73 1012.5
20260901222654 89 245 4.3 7.0 0.00 0.00 0.00 73 1012.4
20260901222150 89 249 3.5 5.2 0.00 0.00 0.00 73 1012.3
20260901221646 90 225 2.6 4.3 0.00 0.00 0.00 72 1012.3
20260901221141 89 261 2.6 2.6 0.00 0.00 0.00 72 1012.5
20260901220640 89 267 1.7 2.6 0.00 0.00 0.00 73 1012.6
20260901220139 90 297 1.7 5.2 0.00 0.00 0.00 72 1012.5
20260901215638 89 290 3.5 4.3 0.00 0.00 0.00 72 1012.2
20260901215133 89 254 0.9 1.7 0.00 0.00 0.00 73 1012.3
20260901214631 90 243 2.6 2.6 0.00 0.00 0.00 71 1012.3
20260901214130 90 272 1.7 2.6 0.00 0.00 0.00 71 1012.3
20260901213625 90 249 4.3 6.1 0.00 0.00 0.00 72 1012.2
20260901213120 91 245 2.6 2.6 0.00 0.00 0.00 71 1012.3
20260901212619 90 278 1.7 1.7 0.00 0.00 0.00 73 1012.4
20260901212116 90 13 0.9 0.9 0.00 0.00 0.00 72 1012.5
20260901211610 90 297 2.6 2.6 0.00 0.00 0.00 72 1012.5
20260901211107 89 306 0.9 0.9 0.00 0.00 0.00 74 1012.5
20260901210602 89 287 2.6 2.6 0.00 0.00 0.00 74 1012.7
20260901210058 89 275 1.7 1.7 0.00 0.00 0.00 73 1012.5
20260901205553 89 218 5.2 6.1 0.00 0.00 0.00 73 1012.6
20260901205047 90 253 0.9 2.6 0.00 0.00 0.00 71 1012.4
20260901204544 90 260 1.7 1.7 0.00 0.00 0.00 71 1012.6
20260901204039 90 205 2.6 5.2 0.00 0.00 0.00 70 1012.7
20260901203539 91 258 5.2 7.8 0.00 0.00 0.00 69 1012.5
20260901203034 91 220 3.5 4.3 0.00 0.00 0.00 71 1012.5
20260901202528 90 300 2.6 4.3 0.00 0.00 0.00 72 1012.5
20260901202025 90 250 1.7 2.6 0.00 0.00 0.00 72 1012.5
20260901201520 89 288 4.3 6.1 0.00 0.00 0.00 72 1012.9
20260901201015 89 317 0.9 1.7 0.00 0.00 0.00 74 1012.6
20260901200514 89 237 2.6 2.6 0.00 0.00 0.00 74 1013.1
20260901200009 90 276 4.3 5.2 0.00 0.00 0.00 73 1012.6
20260901195507 89 273 4.3 5.2 0.00 0.00 0.00 75 1012.6
20260901195006 89 230 4.3 5.2 0.00 0.00 0.00 74 1013.1
20260901194501 90 243 0.9 1.7 0.00 0.00 0.00 73 1013.0
20260901193957 90 87 3.5 6.1 0.00 0.00 0.00 73 1013.0
20260901193456 90 295 1.7 1.7 0.00 0.00 0.00 72 1012.9
20260901192956 90 247 2.6 2.6 0.00 0.00 0.00 73 1013.1
20260901192452 89 337 2.6 2.6 0.00 0.00 0.00 74 1013.3
20260901191948 90 218 2.6 2.6 0.00 0.00 0.00 73 1013.4
20260901191443 88 353 1.7 1.7 0.00 0.00 0.00 75 1013.1
20260901190939 88 42 0.9 0.9 0.00 0.00 0.00 75 1013.3
20260901190434 88 248 1.7 1.7 0.00 0.00 0.00 77 1013.4
20260901185932 89 244 0.9 0.9 0.00 0.00 0.00 76 1013.2
20260901185431 89 248 4.3 5.2 0.00 0.00 0.00 74 1013.3
20260901184926 89 225 2.6 2.6 0.00 0.00 0.00 76 1013.4
20260901184421 89 237 4.3 6.1 0.00 0.00 0.00 73 1013.2
20260901183917 90 221 0.9 0.9 0.00 0.00 0.00 72 1013.4
20260901183416 88 264 2.6 4.3 0.00 0.00 0.00 75 1013.4
20260901182912 88 209 1.7 2.6 0.00 0.00 0.00 75 1013.2
20260901182407 88 320 4.3 5.2 0.00 0.00 0.00 74 1013.1
20260901181857 88 222 2.6 4.3 0.00 0.00 0.00 76 1013.1
20260901181357 89 233 0.9 1.7 0.00 0.00 0.00 75 1013.1
20260901180855 88 284 2.6 4.3 0.00 0.00 0.00 76 1013.2
20260901180355 87 262 2.6 4.3 0.00 0.00 0.00 77 1013.2
20260901175853 87 302 1.7 1.7 0.00 0.00 0.00 78 1012.9
20260901175348 88 330 4.3 5.2 0.00 0.00 0.00 76 1013.3
20260901174843 88 278 4.3 6.1 0.00 0.00 0.00 76 1013.2
20260901174339 89 273 2.6 4.3 0.00 0.00 0.00 76 1013.0
20260901173835 88 264 2.6 4.3 0.00 0.00 0.00 76 1013.2
20260901173329 87 307 3.5 5.2 0.00 0.00 0.00 77 1013.3
20260901172826 87 262 0.9 1.7 0.00 0.00 0.00 77 1013.3
20260901172325 87 242 2.6 2.6 0.00 0.00 0.00 78 1013.4
20260901171823 87 301 3.5 5.2 0.00 0.00 0.00 77 1013.4
20260901171323 86 284 4.3 5.2 0.00 0.00 0.00 79 1013.4
20260901170817 87 233 1.7 2.6 0.00 0.00 0.00 79 1013.4
20260901170317 87 286 3.5 5.2 0.00 0.00 0.00 77 1013.5
20260901165815 87 272 0.9 1.7 0.00 0.00 0.00 78 1013.5
20260901165310 89 284 0.0 0.0 0.00 0.00 0.00 76 1013.7
20260901164807 88 288 0.0 0.0 0.00 0.00 0.00 77 1013.5
20260901164302 87 281 1.7 2.6 0.00 0.00 0.00 78 1013.7
20260901163757 87 247 0.0 0.9 0.00 0.00 0.00 77 1013.5
20260901163256 88 311 0.0 0.0 0.00 0.00 0.00 77 1013.6
20260901162752 88 189 0.9 2.6 0.00 0.00 0.00 75 1013.5
20260901162251 88 294 0.0 0.0 0.00 0.00 0.00 76 1013.6
20260901161750 88 298 0.0 0.0 0.00 0.00 0.00 77 1013.7
20260901161244 88 145 0.9 0.9 0.00 0.00 0.00 76 1014.0
20260901160741 87 243 0.0 0.0 0.00 0.00 0.00 78 1013.9
20260901160236 87 0 0.0 0.0 0.00 0.00 0.00 78 1014.0
20260901155735 86 120 0.0 0.0 0.00 0.00 0.00 78 1013.9
20260901155224 86 270 0.0 0.0 0.00 0.00 0.00 79 1014.3
20260901154719 84 285 0.0 0.0 0.00 0.00 0.00 81 1014.1
20260901154214 84 324 0.0 1.7 0.00 0.00 0.00 82 1014.0
20260901153709 85 240 0.9 1.7 0.00 0.00 0.00 81 1014.0
20260901153203 85 211 0.9 0.9 0.00 0.00 0.00 80 1014.0
20260901152658 84 258 0.0 0.9 0.00 0.00 0.00 82 1014.0
20260901152156 84 278 0.9 0.9 0.00 0.00 0.00 83 1014.2
20260901151653 83 254 0.0 0.0 0.00 0.00 0.00 84 1014.3
20260901151152 83 264 3.5 4.3 0.00 0.00 0.00 83 1014.2
20260901150651 83 301 0.0 0.0 0.00 0.00 0.00 84 1014.4
20260901150149 82 292 0.0 0.9 0.00 0.00 0.00 85 1014.2
20260901145648 82 285 0.0 0.0 0.00 0.00 0.00 85 1014.0
20260901145148 82 274 0.9 0.9 0.00 0.00 0.00 85 1014.1
20260901144643 83 302 0.0 0.0 0.00 0.00 0.00 84 1014.2
20260901144138 81 133 0.0 0.0 0.00 0.00 0.00 86 1014.1
20260901143633 81 333 0.9 1.7 0.00 0.00 0.00 86 1014.1
20260901143130 81 275 0.0 0.0 0.00 0.00 0.00 87 1014.0
20260901142626 80 329 0.9 1.7 0.00 0.00 0.00 88 1014.1
20260901142125 81 230 0.9 0.9 0.00 0.00 0.00 87 1014.1
20260901141620 80 173 0.0 0.0 0.00 0.00 0.00 89 1014.2
20260901141114 79 269 1.7 2.6 0.00 0.00 0.00 90 1014.2
20260901140613 80 264 0.9 0.9 0.00 0.00 0.00 89 1013.9
20260901140112 79 241 0.0 0.9 0.00 0.00 0.00 90 1014.1
20260901135612 79 262 4.3 6.1 0.00 0.00 0.00 90 1014.1
20260901135107 79 241 0.0 0.0 0.00 0.00 0.00 90 1014.0
20260901134603 79 294 0.0 0.0 0.00 0.00 0.00 90 1014.0
20260901134058 78 273 0.0 0.0 0.00 0.00 0.00 91 1013.9
20260901133557 77 259 0.9 1.7 0.00 0.00 0.00 92 1014.2
20260901133056 77 277 0.0 0.9 0.00 0.00 0.00 93 1014.2
20260901132550 76 313 1.7 1.7 0.00 0.00 0.00 94 1014.2
20260901132045 76 254 0.9 0.9 0.00 0.00 0.00 94 1014.2
20260901131539 76 276 2.6 2.6 0.00 0.00 0.00 94 1014.2
20260901131034 76 243 3.5 4.3 0.00 0.00 0.00 94 1014.3
20260901130534 76 226 2.6 2.6 0.00 0.00 0.00 94 1014.6
20260901130033 76 279 2.6 4.3 0.00 0.00 0.00 95 1014.4
20260901125531 76 319 0.9 0.9 0.00 0.00 0.00 96 1014.4
20260901125027 75 291 0.0 0.0 0.00 0.00 0.00 98 1014.3
20260901124522 74 298 0.0 0.0 0.00 0.00 0.00 99 1014.2
20260901124021 74 273 1.7 1.7 0.00 0.00 0.00 99 1014.1
20260901123516 73 335 0.0 0.0 0.00 0.00 0.00 99 1014.1
20260901123016 72 296 0.0 0.0 0.00 0.00 0.00 99 1014.0
20260901122514 72 289 0.0 0.0 0.00 0.00 0.00 99 1014.1
20260901122014 72 274 0.0 0.0 0.00 0.00 0.00 99 1014.0
20260901121508 72 264 0.0 0.0 0.00 0.00 0.00 99 1013.7
20260901121003 72 307 0.0 0.0 0.00 0.00 0.00 99 1013.9
20260901120458 70 299 0.0 0.0 0.00 0.00 0.00 99 1014.0
20260901115953 70 304 0.0 0.0 0.00 0.00 0.00 99 1013.7
20260901115448 70 307 0.0 0.0 0.00 0.00 0.00 99 1013.6
20260901114946 70 289 0.0 0.0 0.00 0.00 0.00 99 1014.0
20260901114441 70 306 0.0 0.0 0.00 0.00 0.00 99 1013.8
20260901113938 70 324 0.0 0.0 0.00 0.00 0.00 99 1013.7
20260901113438 70 308 0.0 0.0 0.00 0.00 0.00 99 1013.6
20260901112928 70 284 0.0 0.0 0.00 0.00 0.00 99 1013.7
20260901112423 70 295 0.0 0.0 0.00 0.00 0.00 99 1013.4
20260901111918 70 289 0.0 0.0 0.00 0.00 0.00 99 1013.3
20260901111416 70 295 0.0 0.0 0.00 0.00 0.00 99 1013.3
20260901110915 70 292 0.0 0.0 0.00 0.00 0.00 99 1013.4
20260901110411 70 295 0.0 0.0 0.00 0.00 0.00 99 1013.6
20260901105907 70 243 0.0 0.0 0.00 0.00 0.00 99 1013.2
20260901105403 70 275 0.0 0.0 0.00 0.00 0.00 99 1013.6
20260901104858 70 284 0.0 0.0 0.00 0.00 0.00 99 1013.3
20260901104353 70 287 0.0 0.0 0.00 0.00 0.00 99 1013.2
20260901103849 70 283 0.0 0.0 0.00 0.00 0.00 99 1013.5
20260901103348 70 285 0.0 0.0 0.00 0.00 0.00 99 1013.4
20260901102843 70 286 0.0 0.0 0.00 0.00 0.00 99 1013.3
20260901102337 70 282 0.0 0.0 0.00 0.00 0.00 99 1013.3
20260901101833 70 282 0.0 0.0 0.00 0.00 0.00 99 1013.4
20260901101333 70 284 0.0 0.0 0.00 0.00 0.00 99 1013.5
20260901100827 71 269 0.0 0.0 0.00 0.00 0.00 99 1013.5
20260901100322 71 286 0.0 0.0 0.00 0.00 0.00 99 1013.4
20260901095820 71 276 0.0 0.9 0.00 0.00 0.00 99 1013.6
20260901095318 71 290 0.0 0.0 0.00 0.00 0.00 99 1013.4
20260901094813 71 294 0.0 0.0 0.00 0.00 0.00 99 1013.4
20260901094307 71 288 0.0 0.0 0.00 0.00 0.00 99 1013.1
20260901093802 71 279 0.0 0.0 0.00 0.00 0.00 99 1013.3
20260901093301 71 275 0.0 0.9 0.00 0.00 0.00 99 1013.3
20260901092757 71 269 0.0 0.0 0.00 0.00 0.00 99 1013.3
20260901092253 70 291 0.0 0.0 0.00 0.00 0.00 99 1013.2
20260901091749 70 289 0.0 0.0 0.00 0.00 0.00 99 1013.2
20260901091244 70 285 0.0 0.0 0.00 0.00 0.00 99 1013.4
20260901090744 70 238 0.0 0.0 0.00 0.00 0.00 99 1013.3
20260901090239 70 287 0.0 0.0 0.00 0.00 0.00 99 1013.3
20260901085735 71 270 0.0 0.0 0.00 0.00 0.00 99 1013.4
20260901085230 71 254 0.0 0.0 0.00 0.00 0.00 99 1013.4
20260901084726 71 279 0.0 0.0 0.00 0.00 0.00 99 1013.4
20260901084222 70 292 0.0 0.0 0.00 0.00 0.00 99 1013.2
20260901083717 70 287 0.0 0.0 0.00 0.00 0.00 99 1013.2
20260901083216 70 311 0.0 0.0 0.00 0.00 0.00 99 1013.1
20260901082715 70 284 0.0 0.0 0.00 0.00 0.00 99 1013.0
20260901082211 70 336 0.0 0.0 0.00 0.00 0.00 99 1013.0
20260901081706 70 285 0.0 0.0 0.00 0.00 0.00 99 1013.2
20260901081206 70 293 0.0 0.0 0.00 0.00 0.00 99 1013.0
20260901080701 70 284 0.0 0.0 0.00 0.00 0.00 99 1013.0
20260901080159 70 284 0.0 0.0 0.00 0.00 0.00 99 1013.1
20260901075654 70 297 0.0 0.0 0.00 0.00 0.00 99 1013.1
20260901075149 71 280 0.0 0.0 0.00 0.00 0.00 99 1013.0
20260901074649 71 290 0.0 0.0 0.00 0.00 0.00 99 1012.7
20260901074144 71 279 0.0 0.0 0.00 0.00 0.00 99 1013.2
20260901073640 71 279 0.0 0.0 0.00 0.00 0.00 99 1012.9
20260901073135 71 272 0.0 0.0 0.00 0.00 0.00 99 1013.0
20260901072630 71 283 0.0 0.0 0.00 0.00 0.00 99 1013.2
20260901072125 71 272 0.0 0.0 0.00 0.00 0.00 99 1012.7
20260901071625 71 285 0.0 0.0 0.00 0.00 0.00 99 1013.1
20260901071124 71 287 0.0 0.0 0.00 0.00 0.00 99 1013.1
20260901070619 71 289 0.0 0.0 0.00 0.00 0.00 99 1013.1
20260901070114 71 283 0.0 0.0 0.00 0.00 0.00 99 1013.1
20260901065603 71 291 0.0 0.0 0.00 0.00 0.00 99 1013.2
20260901065102 71 314 0.0 0.0 0.00 0.00 0.00 99 1013.1
20260901064555 71 265 0.0 0.0 0.00 0.00 0.00 99 1013.0
20260901064050 71 274 0.0 0.0 0.00 0.00 0.00 99 1013.1
20260901063547 71 293 0.0 0.0 0.00 0.00 0.00 99 1013.2
20260901063043 71 292 0.0 0.0 0.00 0.00 0.00 99 1012.9
20260901062539 72 292 0.0 0.0 0.00 0.00 0.00 99 1013.2
20260901062035 72 292 0.0 0.0 0.00 0.00 0.00 99 1013.2
20260901061531 72 283 0.0 0.0 0.00 0.00 0.00 99 1013.1
20260901061031 72 291 0.0 0.0 0.00 0.00 0.00 99 1013.3
20260901060525 72 283 0.0 0.0 0.00 0.00 0.00 99 1013.3
20260901060020 72 313 0.0 0.0 0.00 0.00 0.00 99 1013.5
20260901055516 72 280 0.0 0.0 0.00 0.00 0.00 99 1013.0
20260901055013 72 298 0.0 0.0 0.00 0.00 0.00 98 1013.1
20260901054509 72 292 0.0 0.0 0.00 0.00 0.00 98 1013.4
20260901054005 73 297 0.0 0.0 0.00 0.00 0.00 98 1013.3
20260901053501 73 208 0.9 0.9 0.00 0.00 0.00 98 1013.3
20260901052956 73 298 0.0 0.0 0.00 0.00 0.00 98 1013.3
20260901052452 73 278 0.0 0.0 0.00 0.00 0.00 98 1013.3
20260901051950 73 261 0.9 0.9 0.00 0.00 0.00 98 1013.5
20260901051446 72 304 0.9 0.9 0.00 0.00 0.00 98 1013.3
20260901050945 72 332 0.0 0.0 0.00 0.00 0.00 98 1013.4
20260901050441 72 321 0.0 0.0 0.00 0.00 0.00 97 1013.3
20260901045941 72 308 0.0 0.0 0.00 0.00 0.00 97 1013.3
20260901045436 72 313 0.0 0.0 0.00 0.00 0.00 97 1013.4
20260901044931 73 304 0.0 0.0 0.00 0.00 0.00 96 1013.3
20260901044427 73 322 0.0 0.0 0.00 0.00 0.00 96 1013.3
20260901043923 73 294 0.0 0.0 0.00 0.00 0.00 95 1013.3
20260901043419 73 283 0.0 0.0 0.00 0.00 0.00 95 1013.4
20260901042918 73 273 0.0 0.0 0.00 0.00 0.00 95 1013.4
20260901042413 73 297 0.0 0.0 0.00 0.00 0.00 95 1013.5
20260901041908 73 318 0.0 0.0 0.00 0.00 0.00 94 1013.3
20260901041403 73 281 0.0 0.0 0.00 0.00 0.00 94 1013.4
20260901040902 73 295 0.0 0.0 0.00 0.00 0.00 94 1013.4
20260901040402 73 318 0.0 0.9 0.00 0.00 0.00 93 1013.5
20260901035856 73 307 0.9 0.9 0.00 0.08 0.08 94 1013.3
20260901035354 73 312 0.0 0.0 0.00 0.08 0.08 94 1013.2
20260901034853 73 307 0.0 0.0 0.00 0.08 0.08 93 1013.2
20260901034348 73 221 0.0 0.0 0.00 0.08 0.08 93 1013.3
20260901033843 73 285 0.9 0.9 0.00 0.08 0.08 93 1013.4
20260901033342 73 299 0.0 0.0 0.00 0.08 0.08 92 1013.5
20260901032841 73 259 0.0 0.0 0.00 0.08 0.08 92 1013.6
20260901032341 73 312 0.0 0.0 0.00 0.08 0.08 91 1013.4
20260901031836 74 294 0.9 0.9 0.00 0.08 0.08 91 1013.5
20260901031332 74 279 0.0 0.0 0.00 0.08 0.08 90 1013.3
20260901030831 74 291 0.9 1.7 0.00 0.08 0.08 90 1013.7
20260901030327 74 287 0.9 0.9 0.00 0.08 0.08 90 1013.5
20260901025826 74 296 2.6 2.6 0.00 0.08 0.08 90 1013.3
20260901025321 74 276 1.7 1.7 0.00 0.08 0.08 89 1013.3
20260901024816 73 261 1.7 1.7 0.00 0.08 0.08 89 1013.1
20260901024315 73 275 0.0 0.9 0.00 0.08 0.08 90 1013.3
20260901023813 73 238 0.0 0.0 0.00 0.08 0.08 89 1013.0
20260901023308 74 322 0.0 0.0 0.00 0.08 0.08 89 1013.0
20260901022804 74 252 0.0 0.9 0.00 0.08 0.08 88 1013.2
20260901022300 74 284 0.0 0.0 0.00 0.08 0.08 88 1013.2
20260901021754 74 280 0.9 0.9 0.00 0.08 0.08 87 1013.4
20260901021250 73 303 0.9 1.7 0.00 0.08 0.08 88 1013.2
20260901020745 74 25 0.0 0.0 0.00 0.08 0.08 87 1013.3
20260901020240 74 300 1.7 2.6 0.00 0.08 0.08 87 1013.0
20260901015735 74 274 0.0 0.0 0.00 0.08 0.08 87 1013.2
20260901015231 74 286 0.9 1.7 0.00 0.08 0.08 86 1013.4
20260901014730 74 264 0.9 1.7 0.00 0.08 0.08 86 1013.3
20260901014226 73 309 0.9 1.7 0.00 0.08 0.08 87 1013.3
20260901013721 73 298 0.0 0.0 0.00 0.08 0.08 87 1013.2
20260901013217 73 276 0.0 0.0 0.00 0.08 0.08 87 1013.2
20260901012713 73 324 0.9 0.9 0.00 0.08 0.08 86 1013.2
20260901012213 73 231 2.6 2.6 0.00 0.08 0.08 87 1013.0
20260901011709 73 297 0.0 0.0 0.00 0.08 0.08 88 1013.1
20260901011208 73 260 0.9 1.7 0.00 0.08 0.08 86 1013.0
20260901010702 73 270 0.0 0.9 0.00 0.08 0.08 88 1013.0
20260901010157 72 346 0.0 0.0 0.00 0.08 0.08 89 1012.9
20260901005656 72 267 0.0 0.0 0.00 0.08 0.08 89 1012.6
20260901005152 73 303 0.0 0.0 0.00 0.08 0.08 89 1013.0
20260901004651 73 284 0.0 0.0 0.00 0.08 0.08 88 1012.7